Grand Union Canal Half Marathon
Skip Navigation Links
09 November 2014
HyperLink
Click your name for detailed data
Page 1 of 16 (775 items)
[1]234567...13141516
Pos
Bib No
Fav
Share
Print
Name
Time
Chip Time
Category
Cat Pos
Gender
Gen Pos
Club
Comments
Pace
12615Martin Bateman1:18:45.41:18:45.4Top 31Male1Hillingdon AC 10.0 m/hr
22429Daniel Higgins1:19:40.81:19:40.3Top 32Male2Highgate Harriers  9.9 m/hr
32501Mark Mcleod1:19:44.11:19:44.1Top 33Male3   9.9 m/hr
42499John Mcginn1:20:10.41:20:10.4Sen1Male4Watford Harriers  9.8 m/hr
52337Paul Boddey1:20:22.71:20:22.7Sen2Male5Eton Manor AC  9.8 m/hr
62330Alexander Betts1:20:41.81:20:41.8Sen3Male6Oxford University Cross Country Club  9.7 m/hr
72346Nick Buckle1:21:23.61:21:23.6Sen4Male7   9.7 m/hr
82329Nicolas Besson1:22:50.51:22:50.5Sen5Male8   9.5 m/hr
92637Paul Sharrocks1:23:31.91:23:31.9Sen6Male9   9.4 m/hr
102332Ilias Billas1:23:48.41:23:48.4Sen7Male10   9.4 m/hr
112335Sam Blanshard1:23:53.91:23:53.9Sen8Male11Hillingdon AC  9.4 m/hr
122740Lee Bryant1:24:02.51:23:58.7Sen9Male12Dacroum & Tring AC  9.4 m/hr
132451Alex Jeffreys1:24:49.51:24:49.5V401Male13Serpentine RC  9.3 m/hr
142507Declan Mullins1:24:59.11:24:52.7Sen10Male14   9.2 m/hr
152325Grant Beerling1:25:06.51:25:04.2V501Male15Cambridge Harriers  9.2 m/hr
162478Adam Lewis1:25:22.01:25:20.6Sen11Male16   9.2 m/hr
172484John Low1:25:35.91:25:32.1Sen12Male17   9.2 m/hr
182594Chris Watterson1:26:10.31:26:08.0Sen13Male18London City Athletics Club  9.1 m/hr
192626Jack Lambden1:26:12.61:26:09.7Sen14Male19   9.1 m/hr
202482Tom Lovegrove1:26:16.71:26:14.5Sen15Male20   9.1 m/hr
212416Duncan Hamilton1:26:39.71:26:30.1Sen16Male21Dacorum & Tring AC  9.1 m/hr
222436Ben Horne1:26:53.91:26:51.6Sen17Male22   9.0 m/hr
232320Robin Barrett1:26:59.41:26:56.5Sen18Male23   9.0 m/hr
242309Simon Atkinson1:27:13.21:27:12.4Sen19Male24   9.0 m/hr
252468Chris Lambert1:27:29.51:27:26.9Sen20Male25Ealing Eagles Running Club  9.0 m/hr
262302Nana Agyei1:27:41.51:27:35.9Sen21Male26   9.0 m/hr
272638Danny Bent1:28:19.41:28:17.2Sen22Male27   8.9 m/hr
282475Robert Lees1:28:24.51:28:15.7Sen23Male28   8.9 m/hr
292433Ronan Hoare1:28:27.51:28:18.1Sen24Male29   8.9 m/hr
302487Eva Mack1:28:35.11:28:32.3Top 31Female1Hillingdon AC  8.9 m/hr
312540Tom Renphrey1:28:48.81:28:46.7V402Male30Purple Patch Runners  8.9 m/hr
322483Toby Lovell1:28:53.51:28:47.5Sen25Male31   8.8 m/hr
332493Christopher Mattinson1:28:58.81:28:46.7Sen26Male32   8.8 m/hr
342449Matthew James1:28:59.11:28:56.2Sen27Male33   8.8 m/hr
352363Sam Connelly1:29:00.51:28:57.8Sen28Male34   8.8 m/hr
362389Tom Easten1:29:05.41:29:02.4Sen29Male35Ealing Eagles Running Club  8.8 m/hr
372535Chris Pudney1:29:09.91:29:07.9V502Male36Newbury AC  8.8 m/hr
382584Adam Wakefield1:29:13.41:29:11.4Sen30Male37Ealing Eagles Running Club  8.8 m/hr
392373Ralph Dadswell1:29:45.31:29:38.0V503Male38Ealing Eagles Running Club  8.8 m/hr
402583Igor Vieyra1:29:48.21:29:44.1Sen31Male39   8.8 m/hr
412579Nicholas Towell1:29:51.21:29:45.0Sen32Male40Serpentine RC  8.7 m/hr
422453Alastair Johns1:30:00.21:29:50.5Sen33Male41   8.7 m/hr
432333Michael Birch1:30:09.51:30:01.1Sen34Male42Gade Valley Harriers  8.7 m/hr
442554Lawrence Shafier1:30:19.11:30:19.1V504Male43Orion Harriers  8.7 m/hr
452466Engin Kul1:30:28.61:30:28.6Sen35Male44   8.7 m/hr
462500Martin Mckee1:30:43.41:30:38.0V505Male45   8.7 m/hr
472421Craig Hathaway1:30:48.61:30:47.2Sen36Male46   8.7 m/hr
482611Laurent Zuijdwijk1:30:52.21:30:43.4Sen37Male47   8.6 m/hr
492536Mans Ramberg1:31:17.81:31:17.8Sen38Male48   8.6 m/hr
502633Matt Murray1:31:35.81:31:32.0Sen39Male49   8.6 m/hr
Page 1 of 16 (775 items)
[1]234567...13141516
fb

HyperLink Copyright (c) G Vincent, 2016